Weather in Soissons

France     49°22′31″N   3°19′40″E
temp.,
°C
wind,
m/s
gust,
m/s
humid.,
%
clouds,
%
prec.,
mm/h
press.,
hPa
HPBL,
m
11 may, tue
tue1123:00+11s3588100 0.0 100883
02:00+9sw2392100 0.0 100954
05:00+8sse229675 0.3 100912
08:00+10sse239293 0.7 1009171
11:00+11ssw2492100 0.1 1008246
14:00+15sw5677100 0.6 1009960
17:00+14w787950 0.9 1010981
20:00+13wsw487029 1.1 1011341
12 may, wed
wed1223:00+9wsw41079100 0.0 1012227
02:00+7sw36945 0.0 1013134
05:00+6sw35965 0.0 1013103
08:00+8sw35899 0.0 1014225
11:00+12ssw3469100 0.0 10131035
14:00+14ssw3361100 0.3 10121243
17:00+14s3459100 0.4 10111357
20:00+13se3474100 0.4 1010120
13 may, thu
thu1323:00+8se338346 0.0 101025
02:00+8se2384100 0.0 100938
05:00+9sse2684100 0.0 1008218
08:00+8w479799 2.1 1009377
11:00+12sw357188 0.1 1009954
14:00+14ssw457076 0.8 10081099
17:00+14ssw5669100 1.1 10071370
20:00+12ssw46857 1.9 1007302
14 may, fri
fri1423:00+8s23945 0.1 100739
02:00+7s22965 0.5 100732
05:00+5s22966 0.0 100739
08:00+7s379418 0.0 1008265
11:00+12ssw457984 0.3 1008900
14:00+13s557188 1.1 10091190
17:00+14ssw3363100 0.1 10081393
20:00+12s117199 0.2 100812
15 may, sat
sat1523:00+11s227475 0.1 101019
02:00+9sw238498 0.1 101087
05:00+8s2287100 0.0 100975
08:00+8sw3692100 0.0 1009284
11:00+12sw5679100 0.1 1009836
14:00+13ssw6875100 0.8 10081218
17:00+9ssw61194100 2.1 1007816
20:00+9s51195100 2.7 1006672